Regional Weather Roundup
Issued by NWS Cleveland, OH

Home | Current Version | Previous Version | Graphics & Text | Print | Product List | Glossary On
Versions: 1 2 3 4 5 6 7 8 9 10 11 12 13 14 15 16 17 18 19 20 21 22 23 24 25 26 27 28 29 30 31 32 33 34 35 36 37 38 39 40 41 42 43 44 45 46 47 48 49 50
000
ASUS41 KCLE 300500
RWRCLE
OHIO REGIONAL WEATHER ROUNDUP
NATIONAL WEATHER SERVICE WILMINGTON, OH
100 AM EDT SUN AUG 30 2015

NOTE: "FAIR" INDICATES FEW OR NO CLOUDS BELOW 12,000 FEET WITH NO
SIGNIFICANT WEATHER AND/OR OBSTRUCTIONS TO VISIBILITY.

OHZ001>008-015>018-024>027-034-035-043-044-300600-
   NORTHWEST OHIO

CITY           SKY/WX    TMP DP  RH WIND       PRES   REMARKS
DEFIANCE       HVY RAIN  68  65  90 CALM      30.06F FOG
FINDLAY        CLOUDY    72  69  90 CALM      30.06S FOG
TOLEDO EXPRESS LGT RAIN  68  67  96 CALM      30.07S FOG
TOLEDO EXEC    CLOUDY    70  67  90 CALM      30.08R FOG
LIMA           TSTM      69  67  93 SE6       30.08R
$$

OHZ009>014-019>023-028>033-038-089-300600-
   NORTHEAST OHIO

CITY           SKY/WX    TMP DP  RH WIND       PRES   REMARKS
CLE-HOPKINS    LGT RAIN  71  67  87 CALM      30.10R
CLE-LAKEFRONT  CLOUDY    72  68  87 NE3       30.06S
CUY CO. ARPT   NOT AVBL
LORAIN-ELYRIA  RAIN      66  64  93 SW7       30.10R FOG
ASHTABULA      CLOUDY    66  66 100 CALM      30.09S FOG
AKRON-CANTON   CLOUDY    71  64  78 CALM      30.09S
WOOSTER        NOT AVBL
MANSFIELD      MOCLDY    69  66  90 NE3       30.10R
YOUNGSTOWN     CLOUDY    66  63  90 SE6       30.10R
$$

OHZ042-051>053-060>062-070>072-077>081-300600-
  SOUTHWEST OHIO

CITY           SKY/WX    TMP DP  RH WIND       PRES   REMARKS
CINC-COVINGTON MOCLDY    72  67  84 SW5       30.09R
CINC-LUNKEN    PTCLDY    66  66 100 CALM      30.08S FOG
HAMILTON       MOCLDY    73  67  81 CALM      30.09R
DAYTON         NOT AVBL
WRIGHT-PAT AFB TSTM      72  68  88 S10       30.09R
DAYTON GENERAL TSTM      69  64  84 W18G29    30.10R
WILMINGTON     PTCLDY    67  64  90 S5        30.08F
$$

OHZ036-037-039>041-045>050-054>059-063>069-073>076-082>088-300600-
  CENTRAL AND SOUTHEAST OHIO

CITY           SKY/WX    TMP DP  RH WIND       PRES   REMARKS
COLUMBUS       CLOUDY    71  66  84 CALM      30.07S THUNDER
OSU AIRPORT    MOCLDY    72  68  87 E3        30.07F THUNDER
BOLTON FIELD   NOT AVBL
RICKENBACK AFB NOT AVBL
NEWARK         TSTM      69  67  93 VRB7      30.08S FOG
MARION         MOCLDY    69  64  84 CALM      30.08S
LANCASTER      CLOUDY    71  67  87 CALM      30.07F
ZANESVILLE     MOCLDY    70  63  78 CALM      30.09S
NEW PHILLY     PTCLDY    67  66  97 CALM      30.09S
$$


USA.gov is the U.S. government's official web portal to all federal, state and local government web resources and services.